Flag for Chile Weather past 2 weeks in Santiago, Chile

Now
46 °F

Haze.


Feels Like: 46 °F
Forecast: 42 / 69 °F
Wind: 2 mph from North

Location: Pudahuel

Current Time: Aug 28, 2014 at 12:08:24 AM

Latest Report: Aug 27, 2014 at 11:00 PM


Visibility: 3 mi

Pressure: 30.04 "Hg

Humidity: 76%

Dew point: 39 °F

Location of SantiagoLocation

Historic Weather in Santiago — Graph

°F

Santiago temperature yesterday

Maximum temperature yesterday: 54 °F (at 3:00 PM)
Minimum temperature yesterday: 46 °F (at 1:00 AM)
Average temperature yesterday: 50 °F

Past Weeks' High & Low Weather Summary

 TemperatureHumidityPressure
High84 °F (Aug 17, 3:00 PM)100% (Aug 15, 4:00 AM)30.27 "Hg (Aug 15, 4:00 AM)
Low30 °F (Aug 13, 7:00 AM)13% (Aug 13, 5:00 PM)29.83 "Hg (Aug 18, 4:00 PM)
Average52 °F68%30.03 "Hg
* Reported Aug 12 11:00 PM — Aug 27 11:00 PM, Santiago, Weather by CustomWeather, © 2014

Note: Actual official high and low records may vary slightly from our data, if they occured in-between our weather recording intervals... More about our weather records

Advertising

Santiago weather history for previous 24 hours

 ConditionsComfort  
Time TempWeatherWind HumidityBarometerVisibility
11:00 PM
Aug 27
46 °FHaze.2 mph76%30.04 "Hg3 mi
10:00 PM46 °FClear.2 mph82%30.04 "Hg5 mi
9:00 PM48 °FClear.No wind76%30.07 "Hg5 mi
8:00 PM50 °FPassing clouds.No wind71%30.09 "HgN/A
7:00 PM52 °FPassing clouds.3 mph67%30.07 "HgN/A
6:00 PM54 °FOvercast.6 mph67%30.09 "HgN/A
5:00 PM54 °FOvercast.3 mph63%30.09 "HgN/A
4:00 PM54 °FOvercast.3 mph67%30.09 "HgN/A
3:00 PM54 °FMore clouds than sun.3 mph67%30.09 "HgN/A
2:00 PM52 °FOvercast.3 mph72%30.09 "HgN/A
1:00 PM52 °FOvercast.2 mph72%30.09 "Hg5 mi
12:00 PM50 °FMore clouds than sun.5 mph76%30.09 "Hg5 mi
11:00 AM50 °FMore clouds than sun.6 mph76%30.09 "Hg5 mi
10:00 AM48 °FMore clouds than sun.6 mph82%30.09 "Hg4 mi
9:00 AM48 °FMore clouds than sun.6 mph82%30.07 "Hg4 mi
8:00 AM48 °FFog.2 mph87%30.07 "Hg3 mi
7:00 AM48 °FOvercast.1 mph82%30.04 "Hg4 mi
6:00 AM48 °FMostly cloudy.6 mph82%30.04 "Hg5 mi
5:00 AM48 °FPartly cloudy.8 mph82%30.04 "Hg5 mi
4:00 AM48 °FLow clouds.8 mph87%30.01 "Hg4 mi
3:00 AM48 °FFog.9 mph87%30.01 "Hg3 mi
2:00 AM48 °FFog.10 mph87%30.01 "Hg3 mi
1:00 AM46 °FFog.8 mph93%30.01 "Hg2 mi
12:00 AM48 °FClear.8 mph87%30.01 "Hg4 mi
Weather by CustomWeather, © 2014

See weather overviewHow to use our weather pages